DELTA 1 DEB, 7036

Orbit data source: Space-Track

DELTA 1 DEB, 7036 is space debris in SSO originally from a launch on Tue, 06 Nov 1973 UTC launched from the Air Force Western Test Range (AFWTR). Debris objects in space refer to the collection of defunct objects orbiting the Earth. Examples of debris include non-operational satellites, rocket bodies, and fragments generated from explosions, collisions, or faulty payload assembly.

Loading next visibility...
Identifier
7036, 1973-086AC
Orbit
SSO
Last TLE update
11 hours ago
Origin
Manufacturer
Unknown
Mission
Spacecraft
Bus & Motor
Unknown
Mass
Unknown
Launch date (UTC)
1973-11-06 (52 years ago)
Launch vehicle
Unknown
Launch site
Air Force Western Test Range (AFWTR)
Object type
Payload
Rocket body
Debris
Shape & HBR
Unknown
Radar Cross Section
Medium (>0.1 m² and <1 m²)

Expand to show TLE details & history

TLE from 11 hours ago
0 DELTA 1 DEB
1 07036U 73086AC  25181.93063638  .00001548  00000-0  97592-2 0  9997
2 07036 101.5612 158.4754 0042870 163.5001 263.3615 12.55027821353061
Epoch: 2025-06-30T22:20Z
TLE epoch observation values (Epoch: 2025-06-30T22:20:06.983Z)
Latitude
63.92961°
Longitude
-120.37323°
Altitude
1,458.396 km
Speed
7.137 km/s
True Right ascension
08h 55m 33s
True Declination
63° 48' 21"
Sunlit
Object was in daylight at epoch
Visualization orbit readout
Latitude
-8.28033°
Longitude
-93.63855°
Altitude
1,480.681 km
Speed
7.108 km/s
Apparent Right ascension
10h 04m 17s
Apparent Declination
-22° 44' 44"
Sunlit
Object is in daylight
Visualization observer readout
Local Sidereal Time
21:03:11
Azimuth
318.467° NNW
Elevation
-68.503°
Doppler factor
1
Orbital elements
Apogee altitude
1,474.585 km
Perigee altitude
1,407.543 km
Semi-major axis
7,819.201 km
Eccentricity
0.00429
Inclination
101.5612°
RAAN
158.4754°
Arg. of periapsis
163.5001°
True anomaly
Unknown
Mean anomaly
263.3615°
Eccentric anomaly
Unknown
Mean motion
3.13906 °/min
Orbital period
114.68 mins
BSTAR
0.0097592
Loading maneuver chart data...
Loading SW <> Apogee altitude chart data...
Loading historical data...
Loading historical data...
Loading historical data...
Loading historical data...
Loading historical data...
Loading historical data...
Loading historical data...

DELTA 1 DEB Visibility forecast

Observer location: undefined°, undefined°

Span
Click to sort rows by Start time (UTC) header in descending order
Start Az.
Max El. time (UTC)
Max El. Az.
Max El.
End time (UTC)
End Az.
12 mins2025-07-01 10:06:54.189Z42.436° NE2025-07-01 10:12:54.189Z94.357° ESE24.866°2025-07-01 10:18:54.189Z147.519° SSE
14 mins2025-07-01 11:59:54.189Z7.549° NNE2025-07-01 12:05:54.189Z299.585° NW41.434°2025-07-01 12:13:54.189Z215.46° SW
5 mins2025-07-01 13:54:54.189Z330.809° NNW2025-07-01 13:56:54.189Z315.363° NNW13.181°2025-07-01 13:59:54.189Z292.343° WNW
13 mins2025-07-01 21:04:54.189Z119.579° SE2025-07-01 21:10:54.189Z63.495° ENE31.744°2025-07-01 21:17:54.189Z359.171° N
14 mins2025-07-01 22:56:54.189Z189.028° SSW2025-07-01 23:03:54.189Z267.209° W37.193°2025-07-01 23:10:54.189Z330.907° NNW
|